Weather History for KY19 - September, 2013

Change the Weather History Date:

Sunday, September 22, 2013

  Actual Average (KBIS) Record (KBIS)
Temperature  
Mean Temperature 64 °F 56 °F  
Max Temperature 82 °F 69 °F 95 °F (1936)
Min Temperature 46 °F 42 °F 20 °F (1995)
Degree Days  
Heating Degree Days 1 10  
Month to date heating degree days 137  
Since 1 July heating degree days 192  
Cooling Degree Days 0 1  
Month to date cooling degree days 37  
Year to date cooling degree days 518  
Growing Degree Days 14 (Base 50)    
Moisture  
Dew Point 52 °F    
Average Humidity 67    
Maximum Humidity 93    
Minimum Humidity 45    
Precipitation  
Precipitation 0.00 in 0.05 in 1.00 in (1940)
Month to date precipitation 1.22  
Year to date precipitation 15.03  
Snow  
Snow 0.00 in 0.00 in 1.10 in (1965)
Month to date snowfall 0.1  
Since 1 July snowfall 0.1  
Since 1 September snowfall 0.1  
Snow Depth -    
Sea Level Pressure  
Sea Level Pressure 29.55 in    
Wind  
Wind Speed 11 mph (ESE)    
Max Wind Speed 21 mph    
Max Gust Speed 40 mph    
Visibility 10 miles    
Events Rain , Thunderstorm    
T = Trace of Precipitation, MM = Missing Value Source: NWS Daily Summary

Daily Weather History Graph

Daily Weather History Graph

Search for Another Location

Airport or City:

Trip Planner

Search our weather history database for the weather conditions in past years. The results will help you decide how hot, cold, wet, or windy it might be!

Date:

Astronomy

Sep. 22, 2013 Rise Set
Actual Time 7:30 AM CDT 7:40 PM CDT
Civil Twilight 7:00 AM CDT 8:10 PM CDT
Nautical Twilight 6:24 AM CDT 8:46 PM CDT
Astronomical Twilight 5:48 AM CDT 9:22 PM CDT
Moon 9:16 PM CDT (9/22) 11:07 AM CDT (9/22)
Length of Visible Light 13h 10m
Length of Day
12h 09m
Waning Gibbous, 88% of the Moon is Illuminated
Sep 22
Waning Gibbous
Sep 26
Last Quarter
Oct 4
New
Oct 11
First Quarter
Oct 18
Full

Hourly Weather History & Observations

Time (CDT) Temp. Windchill Dew Point Humidity Pressure Visibility Wind Dir Wind Speed Gust Speed Precip Events Conditions
12:15 AM 53.6 °F - 41.0 °F 62% 29.72 in 10.0 mi East 13.8 mph - N/A   Clear
12:35 AM 53.6 °F - 41.0 °F 62% 29.71 in 10.0 mi East 12.7 mph - N/A   Clear
12:55 AM 53.6 °F - 42.8 °F 67% 29.70 in 10.0 mi East 12.7 mph - N/A   Clear
1:15 AM 51.8 °F - 42.8 °F 71% 29.69 in 10.0 mi East 10.4 mph - N/A   Clear
1:35 AM 51.8 °F - 44.6 °F 76% 29.68 in 10.0 mi East 11.5 mph - N/A   Clear
1:55 AM 50.0 °F - 44.6 °F 82% 29.68 in 10.0 mi East 10.4 mph - N/A   Clear
2:15 AM 51.8 °F - 44.6 °F 76% 29.68 in 10.0 mi East 11.5 mph - N/A   Clear
2:35 AM 50.0 °F - 44.6 °F 82% 29.67 in 10.0 mi East 10.4 mph - N/A   Clear
2:55 AM 50.0 °F - 44.6 °F 82% 29.66 in 10.0 mi East 12.7 mph - N/A   Clear
3:15 AM 50.0 °F - 44.6 °F 82% 29.66 in 10.0 mi East 10.4 mph - N/A   Clear
3:35 AM 50.0 °F - 44.6 °F 82% 29.65 in 10.0 mi East 10.4 mph - N/A   Clear
3:55 AM 50.0 °F - 44.6 °F 82% 29.64 in 10.0 mi East 10.4 mph - N/A   Clear
4:15 AM 50.0 °F - 44.6 °F 82% 29.63 in 10.0 mi East 10.4 mph - N/A   Clear
4:35 AM 50.0 °F - 44.6 °F 82% 29.63 in 10.0 mi East 10.4 mph - N/A   Clear
4:55 AM 48.2 °F - 44.6 °F 87% 29.62 in 10.0 mi East 11.5 mph - N/A   Clear
5:15 AM 48.2 °F - 44.6 °F 87% 29.63 in 10.0 mi East 9.2 mph - N/A   Clear
5:35 AM 48.2 °F - 44.6 °F 87% 29.63 in 10.0 mi East 9.2 mph - N/A   Clear
5:55 AM 48.2 °F - 44.6 °F 87% 29.62 in 10.0 mi East 10.4 mph - N/A   Clear
6:15 AM 48.2 °F - 44.6 °F 87% 29.61 in 10.0 mi East 10.4 mph - N/A   Clear
6:35 AM 48.2 °F - 44.6 °F 87% 29.61 in 10.0 mi East 8.1 mph - N/A   Clear
6:55 AM 48.2 °F - 44.6 °F 87% 29.61 in 10.0 mi East 9.2 mph - N/A   Clear
7:15 AM 48.2 °F - 44.6 °F 87% 29.61 in 10.0 mi East 9.2 mph - N/A   Clear
7:35 AM 46.4 °F 42.4 °F 44.6 °F 93% 29.60 in 10.0 mi East 8.1 mph - N/A   Clear
7:55 AM 46.4 °F 41.9 °F 44.6 °F 93% 29.60 in 10.0 mi East 9.2 mph - N/A   Clear
8:15 AM 48.2 °F - 46.4 °F 93% 29.59 in 10.0 mi East 10.4 mph - N/A   Clear
8:35 AM 50.0 °F - 46.4 °F 87% 29.60 in 10.0 mi East 6.9 mph - N/A   Clear
8:55 AM 51.8 °F - 48.2 °F 88% 29.59 in 10.0 mi ESE 8.1 mph - N/A   Clear
9:15 AM 53.6 °F - 48.2 °F 82% 29.59 in 10.0 mi SE 8.1 mph - N/A   Clear
9:35 AM 53.6 °F - 48.2 °F 82% 29.59 in 10.0 mi ESE 8.1 mph - N/A   Clear
9:55 AM 55.4 °F - 50.0 °F 82% 29.57 in 10.0 mi ESE 8.1 mph - N/A   Clear
10:15 AM 57.2 °F - 50.0 °F 77% 29.58 in 10.0 mi SE 9.2 mph - N/A   Clear
10:35 AM 60.8 °F - 51.8 °F 72% 29.57 in 10.0 mi SE 11.5 mph - N/A   Clear
10:55 AM 62.6 °F - 53.6 °F 72% 29.56 in 10.0 mi ESE 12.7 mph - N/A   Clear
11:15 AM 62.6 °F - 53.6 °F 72% 29.57 in 10.0 mi SE 8.1 mph - N/A   Clear
11:35 AM 64.4 °F - 53.6 °F 68% 29.57 in 10.0 mi ESE 6.9 mph - N/A   Clear
11:55 AM 66.2 °F - 53.6 °F 64% 29.56 in 10.0 mi SE 8.1 mph - N/A   Clear
12:15 PM 68.0 °F - 55.4 °F 64% 29.55 in 10.0 mi ESE 5.8 mph - N/A   Clear
12:35 PM 68.0 °F - 55.4 °F 64% 29.55 in 10.0 mi SE 8.1 mph - N/A   Clear
12:55 PM 71.6 °F - 55.4 °F 57% 29.53 in 10.0 mi ESE 13.8 mph - N/A   Clear
1:15 PM 73.4 °F - 55.4 °F 53% 29.52 in 10.0 mi SE 15.0 mph 19.6 mph N/A   Clear
1:35 PM 73.4 °F - 55.4 °F 53% 29.54 in 10.0 mi SE 13.8 mph - N/A   Clear
1:55 PM 75.2 °F - 55.4 °F 50% 29.52 in 10.0 mi SE 15.0 mph - N/A   Clear
2:15 PM 75.2 °F - 57.2 °F 53% 29.52 in 10.0 mi SE 8.1 mph - N/A   Clear
2:35 PM 75.2 °F - 57.2 °F 53% 29.51 in 10.0 mi ESE 10.4 mph - N/A   Clear
2:55 PM 77.0 °F - 57.2 °F 50% 29.51 in 10.0 mi SE 10.4 mph - N/A   Clear
3:15 PM 77.0 °F - 57.2 °F 50% 29.50 in 10.0 mi SE 4.6 mph - N/A   Clear
3:35 PM 77.0 °F - 59.0 °F 54% 29.50 in 10.0 mi SSE 11.5 mph - N/A   Clear
3:55 PM 80.6 °F - 59.0 °F 48% 29.49 in 10.0 mi SSE 12.7 mph 17.3 mph N/A   Clear
4:15 PM 82.4 °F - 59.0 °F 45% 29.48 in 10.0 mi SE 13.8 mph 18.4 mph N/A   Clear
4:35 PM 82.4 °F - 59.0 °F 45% 29.48 in 10.0 mi SSE 12.7 mph 16.1 mph N/A   Clear
4:55 PM 80.6 °F - 60.8 °F 51% 29.47 in 10.0 mi SE 6.9 mph - N/A   Clear
5:15 PM 80.6 °F - 60.8 °F 51% 29.47 in 10.0 mi SSE 8.1 mph - N/A   Clear
5:35 PM 80.6 °F - 60.8 °F 51% 29.46 in 10.0 mi SE 8.1 mph - N/A   Clear
5:55 PM 78.8 °F - 62.6 °F 57% 29.46 in 10.0 mi SE 6.9 mph - N/A   Clear
6:15 PM 77.0 °F - 62.6 °F 61% 29.46 in 10.0 mi SE 5.8 mph - N/A   Clear
6:35 PM 77.0 °F - 62.6 °F 61% 29.46 in 10.0 mi SE 4.6 mph - N/A   Clear
6:55 PM 77.0 °F - 60.8 °F 57% 29.46 in 10.0 mi SE 6.9 mph - N/A   Clear
7:15 PM 77.0 °F - 59.0 °F 54% 29.46 in 10.0 mi SE 9.2 mph - N/A   Clear
7:35 PM 75.2 °F - 57.2 °F 53% 29.46 in 10.0 mi SSE 10.4 mph - N/A   Clear
7:55 PM 77.0 °F - 57.2 °F 50% 29.45 in 10.0 mi SSE 6.9 mph - N/A   Clear
8:15 PM 75.2 °F - 57.2 °F 53% 29.45 in 10.0 mi SE 9.2 mph - N/A   Mostly Cloudy
8:35 PM 73.4 °F - 57.2 °F 57% 29.45 in 10.0 mi SE 9.2 mph - N/A   Partly Cloudy
8:55 PM 75.2 °F - 57.2 °F 53% 29.45 in 10.0 mi SSE 17.3 mph 20.7 mph N/A   Clear
9:15 PM 77.0 °F - 55.4 °F 47% 29.46 in 10.0 mi SSE 12.7 mph 23.0 mph N/A   Clear
9:35 PM 77.0 °F - 55.4 °F 47% 29.47 in 10.0 mi South 16.1 mph 40.3 mph N/A   Scattered Clouds
9:55 PM 75.2 °F - 57.2 °F 53% 29.47 in 10.0 mi South 20.7 mph 28.8 mph N/A   Mostly Cloudy
10:15 PM 71.6 °F - 57.2 °F 60% 29.46 in 10.0 mi SSE 17.3 mph 27.6 mph N/A Thunderstorm Mostly Cloudy
10:35 PM 71.6 °F - 57.2 °F 60% 29.47 in 10.0 mi SSE 19.6 mph 29.9 mph N/A   Partly Cloudy
10:55 PM 71.6 °F - 57.2 °F 60% 29.47 in 10.0 mi SSE 16.1 mph 21.9 mph N/A Thunderstorm Clear
11:15 PM 71.6 °F - 55.4 °F 57% 29.48 in 10.0 mi SSE 13.8 mph 18.4 mph N/A   Clear
11:35 PM 71.6 °F - 55.4 °F 57% 29.48 in 10.0 mi SSE 10.4 mph 19.6 mph N/A   Clear
11:55 PM 69.8 °F - 57.2 °F 64% 29.48 in 9.0 mi SE 11.5 mph 19.6 mph N/A Rain Light Rain